Regional Weather Roundup
Issued by NWS

Current Version | Previous Version | Text Only | Print | Product List | Glossary On
Versions: 1 2 3 4 5 6 7 8 9 10 11 12 13 14 15 16 17 18 19 20 21 22 23 24 25 26 27 28 29 30 31 32 33 34 35 36 37 38 39 40 41 42 43 44 45 46 47 48 49 50
000
ASUS45 KREV 260810
RWRNV
NEVADA REGIONAL WEATHER ROUNDUP
NATIONAL WEATHER SERVICE RENO NV
1200 AM PST MON JAN 26 2015

NOTE: "FAIR" INDICATES FEW OR NO CLOUDS BELOW 12,000 FEET WITH NO
SIGNIFICANT WEATHER AND/OR OBSTRUCTIONS TO VISIBILITY.

NVZ001-003-004-260900-
WESTERN NEVADA

CITY           SKY/WX    TMP DP  RH WIND       PRES   REMARKS
RENO           CLEAR     37  27  67 CALM      30.31F
CARSON CITY    FAIR      32  23  69 NW3       30.33F
PYRAMID LAKE     N/A     46 N/A N/A NW6         N/A
FALLON         PTCLDY    29  15  56 S3        30.30F
LOVELOCK       PTCLDY    28  19  69 CALM      30.30F
HAWTHORNE      CLEAR     39  25  56 CALM      30.31F
$$

NVZ002-CAZ072-073-260900-
NORTHERN AND CENTRAL SIERRA

CITY           SKY/WX    TMP DP  RH WIND       PRES   REMARKS
S. LAKE TAHOE  CLEAR     30  22  72 CALM      30.31F
TRUCKEE        CLEAR     27  23  86 E3        30.32F
SQUAW VLY 8000   N/A     37  21  52 CALM        N/A
SUSANVILLE     CLEAR     32  30  93 W3        30.29F
BLUE CANYON    CLEAR     57  18  21 VRB5      30.21S
MAMMOTH LAKES  FAIR      36  19  51 W9        30.36F
BRIDGEPORT     FAIR      26  16  65 CALM      30.34F
$$

NVZ030-031-036-260900-
NORTHERN NEVADA

CITY           SKY/WX    TMP DP  RH WIND       PRES   REMARKS
ELKO           CLEAR     31  28  89 CALM      30.40R
WINNEMUCCA     CLEAR     41  32  70 NE15      30.31F
WENDOVER       CLEAR     30  27  86 CALM      30.41F
$$

NVZ035-037-260900-
CENTRAL NEVADA

CITY           SKY/WX    TMP DP  RH WIND       PRES   REMARKS
ELY            CLEAR     28  23  81 S9        30.42F
EUREKA           N/A     26  22  84 CALM      30.39
$$

NVZ013-014-260900-
SOUTH CENTRAL NEVADA

CITY           SKY/WX    TMP DP  RH WIND       PRES   REMARKS
TONOPAH        CLEAR     37  21  52 N7        30.32F
$$

NVZ017-020-022-260900-
SOUTHERN NEVADA

CITY           SKY/WX    TMP DP  RH WIND       PRES   REMARKS
LAS VEGAS      MOCLDY    56  33  42 S7        30.14S
N. LAS VEGAS   PTCLDY    52  30  43 NW6       30.17F
NELLIS AFB     PTCLDY    55  33  43 NE3       30.17F
HENDERSON      MOCLDY    50  34  54 SW3       30.20S
MERCURY        PTCLDY    56  28  34 E12       30.19F
$$


USA.gov is the U.S. government's official web portal to all federal, state and local government web resources and services.